Printer-friendly version

IAU Minor Planet Center

Minor Planet Center

MPEC 2004-F70 : 2004 EU20

The following Minor Planet Electronic Circular may be linked-to from your own Web pages, but must not otherwise be redistributed electronically.


Read MPEC 2004-F69 Read MPEC 2004-F71


M.P.E.C. 2004-F70                                Issued 2004 Mar. 27, 21:12 UT

     The Minor Planet Electronic Circulars contain information on unusual
         minor planets and routine data on comets.  They are published
   on behalf of Commission 20 of the International Astronomical Union by the
          Minor Planet Center, Smithsonian Astrophysical Observatory,
                          Cambridge, MA 02138, U.S.A.

         Supported in part by the Steven and Michele Kirsch Foundation
             Prepared using the Tamkin Foundation Computer Network

                              MPC@CFA.HARVARD.EDU
          URL http://cfa-www.harvard.edu/iau/mpc.html  ISSN 1523-6714

                                   2004 EU20

Additional Observations:
     K04E20U  C2004 03 23.33733 13 15 15.47 +04 50 11.7          19.1   EF070704
     K04E20U  C2004 03 23.34776 13 15 14.49 +04 50 09.0          19.3   EF070704
     K04E20U  C2004 03 23.35832 13 15 13.46 +04 50 05.7          19.5   EF070704
     K04E20U  C2004 03 23.36898 13 15 12.42 +04 50 03.7          19.5   EF070704
     K04E20U  C2004 03 23.37954 13 15 11.39 +04 50 00.2          19.9   EF070704
     K04E20U  C2004 03 26.33567 13 10 34.08 +04 34 41.5          19.3   EF070704
     K04E20U  C2004 03 26.34618 13 10 32.93 +04 34 37.3          20.5   EF070704
     K04E20U  C2004 03 26.35680 13 10 32.08 +04 34 37.1          20.4   EF070704
     K04E20U  C2004 03 26.36729 13 10 31.08 +04 34 30.7          20.0   EF070704
     K04E20U  C2004 03 27.32728 13 09 00.70 +04 29 24.4          19.6   EF070704
     K04E20U  C2004 03 27.33788 13 08 59.65 +04 29 21.0          19.3   EF070704
     K04E20U  C2004 03 27.34825 13 08 58.70 +04 29 17.6          19.0   EF070704
     K04E20U  C2004 03 27.35876 13 08 57.70 +04 29 14.4          19.4   EF070704
     K04E20U  C2004 03 27.36908 13 08 56.66 +04 29 11.8          19.5   EF070704

Observer details:
704 Lincoln Laboratory ETS, New Mexico.  Observers M. Blythe, F. Shelly,
    M. Bezpalko, R. Huber, L. Manguso, D. Torres, R. Kracke, M. McCleary,
    H. Stange, A. Milner.  Measurers J. Stuart, R. Sayer, J. Evans, J. Kommers.
    1.0-m f/2.15 reflector + CCD.

Orbital elements:
2004 EU20
Epoch 2004 Mar. 16.0 TT = JDT 2453080.5                 MPC
M  31.73981              (2000.0)            P               Q
n   0.17046067     Peri.   74.91666     -0.06785054     -0.97929576
a   3.2214638      Node    21.89004     +0.59883508     -0.19287539
e   0.5318279      Incl.   30.76817     +0.79799301     +0.06147273
P   5.78           H   15.9           G   0.15
From 22 observations 2004 Mar. 15-27.

Ephemeris:
2004 EU20                a,e,i = 3.22, 0.53, 31                  q = 1.5082
Date    TT    R. A. (2000) Decl.     Delta      r     Elong.  Phase     V
2004 03 26    13 11.10   +04 36.5    1.379    2.359   165.7     6.0    18.9
2004 04 05    12 55.59   +03 40.3    1.427    2.419   170.2     4.0    19.0
2004 04 15    12 41.44   +02 37.4    1.505    2.479   162.0     7.2    19.3
2004 04 25    12 29.79   +01 28.8    1.612    2.538   150.9    11.1    19.7
2004 05 05    12 21.26   +00 15.7    1.743    2.597   139.9    14.5    20.0
2004 05 15    12 15.91   -01 00.4    1.895    2.656   129.6    17.1    20.3
2004 05 25    12 13.51   -02 19.0    2.063    2.714   119.9    18.9    20.6
2004 06 04    12 13.73   -03 39.5    2.242    2.772   110.9    20.0    20.9
2004 06 14    12 16.12   -05 01.7    2.430    2.828   102.5    20.5    21.1
2004 06 24    12 20.35   -06 25.5    2.622    2.885    94.4    20.6    21.3
2004 07 04    12 26.08   -07 50.7    2.816    2.940    86.8    20.2    21.5
2004 07 14    12 33.03   -09 17.0    3.009    2.995    79.5    19.5    21.7
2004 07 24    12 41.00   -10 44.4    3.199    3.049    72.3    18.5    21.8
2004 08 03    12 49.81   -12 12.6    3.383    3.102    65.4    17.3    21.9

Kyle E. Smalley              (C) Copyright 2004 MPC           M.P.E.C. 2004-F70

Read MPEC 2004-F69 Read MPEC 2004-F71


Our Web policy. Index to the CBAT/MPC/ICQ pages.


Valid HTML 4.01!